Location: Unspecified
(40.9447°N, 78.9903°W)
Time: 11:00:43
(UTC-04:00)

CZ-3 Stage 3 - Pass Details

Date: 03 August 2021
Orbit: 451 x 34732 km, 30.4° (Epoch: 19 September)

Event Time Altitude Azimuth Distance (km) Brightness Sun altitude
Rises 00:02:23 0° 240° (WSW) 9,420 8.0 -28.7°
Reaches altitude 10° 00:12:52 10° 230° (SW) 5,114 6.5 -29.4°
Enters shadow 00:15:37 14° 223° (SW) 3,917 5.8 -29.6°
